Location: Unspecified
(0.0000°N, 0.0000°E)
Time: 05:17:07
(UTC+02:00)

Haruka - Visible Passes

Search period start: 31 March 2015 00:00
Search period end: 10 April 2015 00:00
Orbit: 545 x 21228 km, 31.3° (Epoch: 29 March)

Date Brightness Start Highest point End Pass type
(mag) Time Alt. Az. Time Alt. Az. Time Alt. Az.
31 Mar 7.8 01:55:57 21° ESE 01:55:57 21° ESE 02:10:11 10° ESE visible
01 Apr 7.3 03:01:20 42° SE 03:01:20 42° SE 04:04:42 10° SE visible
02 Apr 7.0 04:06:43 58° S 04:06:43 58° S 08:08:16 10° ESE visible
03 Apr 7.0 05:12:06 46° SW 05:21:06 51° S 10:02:57 10° E visible
04 Apr 7.4 06:17:28 25° WSW 06:56:52 47° S 11:26:13 10° E visible
05 Apr 7.8 07:24:33 10° WSW 10:54:19 60° SSE 12:41:00 10° ENE visible
06 Apr 7.7 02:11:51 27° ESE 02:11:51 27° ESE 02:37:36 10° ESE visible
07 Apr 7.3 03:17:12 46° SE 03:17:12 46° SE 05:15:37 10° ESE visible
08 Apr 7.2 04:22:34 51° S 04:22:34 51° S 08:54:41 10° E visible
09 Apr 7.3 05:27:55 37° SW 05:46:53 46° S 10:27:33 10° E visible
